Погода в Новоселице

Украина / Черновицкая область     48°13′09″N   26°15′54″E
темп.,
°C
ветер,
м/с
пор.,
м/с
влажн.,
%
обл.,
%
осадки,
мм/ч
давл.,
гПа
погр.,
м
12 августа, пт
пт1200:00+16зсз227270 0.0 101917
03:00+14зсз238344 0.0 102043
06:00+15зсз4881100 0.1 1019210
09:00+18сз5675100 0.1 1019357
12:00+21сз577497 0.8 1019666
15:00+22ссз5676100 2.3 1017579
18:00+20с388571 3.8 1017297
21:00+18с349262 5.9 101776
13 августа, сб
сб1300:00+17сз229558 0.0 101729
03:00+16зсз22965 0.0 101628
06:00+16зсз2696100 0.0 1015165
09:00+17зсз4794100 0.0 1014270
12:00+21сз5579100 0.0 1013705
15:00+26ссз455997 0.1 10111374
18:00+26ссз3464100 1.6 1010770
21:00+20зсз348787 4.4 100967
14 августа, вс
вс1400:00+18сз3695100 5.8 1010142
03:00+17зсз4897100 5.8 1009186
06:00+17зсз3798100 0.4 1009186
09:00+19сз5791100 0.7 1009390
12:00+24сз4567100 0.0 1009932
15:00+25ссв4462100 0.0 1008947
18:00+26ссз345918 0.0 1007951
21:00+19ю3690100 3.4 1008129
15 августа, пн
пн1500:00+18в009070 0.2 100811
03:00+17зсз1188100 0.3 100711
06:00+17зсз1189100 0.0 100711
09:00+20зсз2280100 0.0 1007183
12:00+25зсз2260100 0.0 1007673
15:00+28с1148100 0.0 10061156
18:00+28в114823 0.0 10061180
21:00+19зюз357237 0.2 100776
16 августа, вт
вт1600:00+19зюз227092 0.0 100711
03:00+18з11755 0.0 100711
06:00+17з11825 0.0 100711
09:00+22з346715 0.0 1008260
12:00+28сз12465 0.0 1007974
15:00+31сз133719 0.0 10071937
18:00+27юз545472 0.6 1007567
21:00+19вюв228777 3.1 100922